CKS122 LTCT-OIII

Flight info

Callsign CKS122
Flight time 1h 5m
Altitude 35000
Route GDR UN374 GEZSO N374 NAX L125 ASPOK DCT PAXID
Aircraft B77L/H-SDE1E2E3FGHIJ2J3J4J5M1RWXY/LB1D1

Departure

Time 2026-04-28 05:09
Airport Iğdır Airport (LTCT)

Arrival

Time 2026-04-28 06:15
Airport Mehrabad International Airport (OIII)
Time Latitude Longitude Altitude Speed Heading
2026-04-28 04:52 39.98042 43.87690 3103 ft 0 kts 39°
2026-04-28 05:04 39.98034 43.87682 3103 ft 3 kts 36°
2026-04-28 05:04 39.98017 43.87672 3104 ft 3 kts 358°
2026-04-28 05:04 39.97997 43.87680 3105 ft 3 kts 317°
2026-04-28 05:04 39.97981 43.87701 3105 ft 3 kts 293°
2026-04-28 05:05 39.97979 43.87731 3102 ft 3 kts 245°
2026-04-28 05:05 39.97984 43.87742 3102 ft 0 kts 226°
2026-04-28 05:06 39.97983 43.87742 3102 ft 1 kts 226°
2026-04-28 05:06 39.97909 43.87684 3104 ft 22 kts 217°
2026-04-28 05:06 39.97832 43.87602 3107 ft 7 kts 219°
2026-04-28 05:06 39.97791 43.87544 3102 ft 13 kts 248°
2026-04-28 05:07 39.97832 43.87412 3106 ft 20 kts 308°
2026-04-28 05:07 39.97942 43.87231 3108 ft 33 kts 309°
2026-04-28 05:07 39.98085 43.87002 3108 ft 31 kts 309°
2026-04-28 05:07 39.98220 43.86794 3111 ft 30 kts 318°
2026-04-28 05:08 39.98323 43.86705 3112 ft 9 kts 285°
2026-04-28 05:08 39.98290 43.86679 3112 ft 8 kts 159°
2026-04-28 05:08 39.98274 43.86702 3112 ft 0 kts 129°
2026-04-28 05:08 39.98271 43.86706 3112 ft 3 kts 129°
2026-04-28 05:09 39.98146 43.86903 3108 ft 67 kts 129°
2026-04-28 05:09 39.97668 43.87666 3102 ft 151 kts 129°
2026-04-28 05:09 39.96843 43.88979 3151 ft 212 kts 130°
2026-04-28 05:09 39.95926 43.90432 4010 ft 203 kts 130°
2026-04-28 05:10 39.95003 43.91873 4774 ft 213 kts 130°
2026-04-28 05:10 39.93985 43.93431 5083 ft 238 kts 130°
2026-04-28 05:10 39.93036 43.95325 5251 ft 266 kts 107°
2026-04-28 05:10 39.92623 43.97713 6004 ft 271 kts 100°
2026-04-28 05:11 39.92277 44.00135 7012 ft 270 kts 101°
2026-04-28 05:11 39.91912 44.02515 7862 ft 273 kts 102°
2026-04-28 05:11 39.91512 44.04950 8691 ft 277 kts 103°
2026-04-28 05:11 39.91085 44.07417 9500 ft 282 kts 104°
2026-04-28 05:12 39.90635 44.09930 10265 ft 288 kts 104°
2026-04-28 05:12 39.90158 44.12536 10655 ft 307 kts 105°
2026-04-28 05:12 39.89631 44.15365 10834 ft 334 kts 104°
2026-04-28 05:12 39.89058 44.18414 11013 ft 359 kts 105°
2026-04-28 05:13 39.88449 44.21641 11608 ft 370 kts 105°
2026-04-28 05:13 39.87826 44.24931 12327 ft 378 kts 105°
2026-04-28 05:13 39.87184 44.28306 13101 ft 385 kts 105°
2026-04-28 05:13 39.86546 44.31653 13945 ft 388 kts 105°
2026-04-28 05:14 39.85890 44.35084 14703 ft 392 kts 105°
2026-04-28 05:14 39.85229 44.38541 15438 ft 397 kts 105°
2026-04-28 05:14 39.84557 44.42044 16149 ft 401 kts 105°
2026-04-28 05:14 39.83874 44.45596 16856 ft 406 kts 105°
2026-04-28 05:15 39.83183 44.49190 17566 ft 411 kts 105°
2026-04-28 05:15 39.82483 44.52818 18241 ft 416 kts 105°
2026-04-28 05:15 39.81759 44.56485 18826 ft 419 kts 107°
2026-04-28 05:15 39.80683 44.60029 19356 ft 424 kts 118°
2026-04-28 05:16 39.79118 44.63291 19922 ft 427 kts 128°
2026-04-28 05:16 39.77146 44.66190 20522 ft 430 kts 136°
2026-04-28 05:16 39.75021 44.68882 21103 ft 434 kts 136°
2026-04-28 05:17 39.70827 44.74631 22204 ft 444 kts 129°
2026-04-28 05:17 39.69029 44.77920 22773 ft 449 kts 122°
2026-04-28 05:17 39.67431 44.81420 23334 ft 453 kts 121°
2026-04-28 05:17 39.65809 44.84953 23861 ft 457 kts 122°
2026-04-28 05:18 39.64102 44.88445 24326 ft 460 kts 127°
2026-04-28 05:18 39.62116 44.91704 24814 ft 462 kts 133°
2026-04-28 05:18 39.59872 44.94699 25305 ft 463 kts 140°
2026-04-28 05:18 39.57449 44.97477 25789 ft 465 kts 141°
2026-04-28 05:19 39.55006 45.00243 26264 ft 468 kts 141°
2026-04-28 05:19 39.52557 45.03049 26717 ft 471 kts 141°
2026-04-28 05:19 39.50136 45.05853 27179 ft 474 kts 141°
2026-04-28 05:19 39.47685 45.08745 27638 ft 478 kts 139°
2026-04-28 05:20 39.45310 45.11768 28069 ft 481 kts 138°
2026-04-28 05:20 39.42936 45.14845 28490 ft 485 kts 138°
2026-04-28 05:20 39.40546 45.17955 28889 ft 488 kts 139°
2026-04-28 05:20 39.38145 45.21071 29285 ft 490 kts 139°
2026-04-28 05:21 39.35740 45.24178 29738 ft 491 kts 139°
2026-04-28 05:21 39.33315 45.27300 30299 ft 489 kts 139°
2026-04-28 05:21 39.30910 45.30389 30843 ft 486 kts 140°
2026-04-28 05:21 39.28521 45.33455 31421 ft 482 kts 140°
2026-04-28 05:22 39.26152 45.36490 31947 ft 479 kts 141°
2026-04-28 05:22 39.23790 45.39512 32415 ft 477 kts 141°
2026-04-28 05:22 39.21393 45.42457 32864 ft 472 kts 145°
2026-04-28 05:22 39.18876 45.45049 33312 ft 466 kts 150°
2026-04-28 05:23 39.16175 45.47304 33790 ft 458 kts 156°
2026-04-28 05:23 39.13430 45.49359 34243 ft 455 kts 157°
2026-04-28 05:23 39.10686 45.51406 34529 ft 455 kts 156°
2026-04-28 05:23 39.07941 45.53465 34728 ft 458 kts 156°
2026-04-28 05:24 39.05188 45.55546 34962 ft 459 kts 156°
2026-04-28 05:24 39.02417 45.57652 35007 ft 464 kts 156°
2026-04-28 05:24 38.96878 45.61874 35060 ft 461 kts 156°
2026-04-28 05:25 38.91411 45.65966 35069 ft 454 kts 157°
2026-04-28 05:25 38.85914 45.69956 35070 ft 453 kts 158°
2026-04-28 05:26 38.80438 45.73949 35072 ft 453 kts 158°
2026-04-28 05:26 38.75235 45.78619 35074 ft 465 kts 144°
2026-04-28 05:27 38.70886 45.84903 35069 ft 480 kts 133°
2026-04-28 05:27 38.67100 45.91975 35067 ft 482 kts 131°
2026-04-28 05:28 38.63973 45.97892 35067 ft 483 kts 132°
2026-04-28 05:28 38.60173 46.04984 35078 ft 483 kts 132°
2026-04-28 05:29 38.56369 46.12007 35082 ft 484 kts 132°
2026-04-28 05:29 38.52518 46.19076 35063 ft 485 kts 132°
2026-04-28 05:30 38.48662 46.26146 35058 ft 485 kts 133°
2026-04-28 05:30 38.44799 46.33215 35066 ft 485 kts 132°
2026-04-28 05:31 38.40929 46.40281 35074 ft 486 kts 132°
2026-04-28 05:31 38.37050 46.47345 35071 ft 486 kts 132°
2026-04-28 05:32 38.33166 46.54406 35067 ft 487 kts 133°
2026-04-28 05:32 38.29286 46.61449 35062 ft 487 kts 133°
2026-04-28 05:33 38.25386 46.68509 35065 ft 488 kts 133°
2026-04-28 05:33 38.21478 46.75569 35061 ft 488 kts 133°
2026-04-28 05:34 38.17566 46.82620 35057 ft 488 kts 133°
2026-04-28 05:34 38.13677 46.89616 35048 ft 487 kts 132°
2026-04-28 05:35 38.09762 46.96643 35056 ft 487 kts 133°
2026-04-28 05:35 38.05832 47.03682 35051 ft 487 kts 133°
2026-04-28 05:36 38.01901 47.10708 35043 ft 488 kts 132°
2026-04-28 05:36 37.97967 47.17725 35044 ft 488 kts 132°
2026-04-28 05:37 37.94052 47.24693 35046 ft 488 kts 132°
2026-04-28 05:37 37.90108 47.31701 35040 ft 488 kts 132°
2026-04-28 05:38 37.86220 47.38763 35043 ft 491 kts 130°
2026-04-28 05:38 37.82480 47.46001 35045 ft 492 kts 129°
2026-04-28 05:39 37.78741 47.53255 35058 ft 492 kts 130°
2026-04-28 05:39 37.74975 47.60473 35062 ft 492 kts 130°
2026-04-28 05:40 37.71183 47.67691 35065 ft 493 kts 130°
2026-04-28 05:40 37.67386 47.74903 35058 ft 493 kts 130°
2026-04-28 05:41 37.63583 47.82116 35058 ft 493 kts 130°
2026-04-28 05:41 37.59810 47.89258 35067 ft 493 kts 130°
2026-04-28 05:42 37.55998 47.96457 35063 ft 492 kts 130°
2026-04-28 05:42 37.52199 48.03618 35065 ft 492 kts 130°
2026-04-28 05:43 37.48056 48.10371 35072 ft 484 kts 137°
2026-04-28 05:43 37.43679 48.16808 35086 ft 482 kts 137°
2026-04-28 05:44 37.39322 48.23222 35094 ft 482 kts 137°
2026-04-28 05:44 37.35001 48.29632 35100 ft 483 kts 137°
2026-04-28 05:45 37.30664 48.36076 35116 ft 483 kts 137°
2026-04-28 05:45 37.26322 48.42510 35120 ft 483 kts 137°
2026-04-28 05:46 37.21964 48.48954 35130 ft 483 kts 137°
2026-04-28 05:46 37.17610 48.55381 35136 ft 484 kts 137°
2026-04-28 05:47 37.13243 48.61812 35141 ft 483 kts 137°
2026-04-28 05:47 37.08883 48.68221 35149 ft 482 kts 137°
2026-04-28 05:48 37.04533 48.74605 35165 ft 482 kts 137°
2026-04-28 05:48 37.00182 48.80994 35171 ft 483 kts 135°
2026-04-28 05:49 36.96395 48.87981 35176 ft 492 kts 126°
2026-04-28 05:49 36.93028 48.95460 35171 ft 494 kts 125°
2026-04-28 05:50 36.89653 49.02950 35199 ft 495 kts 125°
2026-04-28 05:50 36.86233 49.10435 35177 ft 496 kts 126°
2026-04-28 05:51 36.82812 49.17865 35199 ft 497 kts 126°
2026-04-28 05:51 36.79353 49.25355 35186 ft 499 kts 126°
2026-04-28 05:52 36.75886 49.32852 35193 ft 497 kts 126°
2026-04-28 05:52 36.74168 49.36569 35040 ft 492 kts 126°
2026-04-28 05:52 36.72459 49.40258 34598 ft 490 kts 126°
2026-04-28 05:53 36.70762 49.43919 34144 ft 486 kts 126°
2026-04-28 05:53 36.69082 49.47534 33643 ft 482 kts 126°
2026-04-28 05:53 36.67429 49.51088 33150 ft 478 kts 126°
2026-04-28 05:53 36.65767 49.54656 32660 ft 474 kts 126°
2026-04-28 05:54 36.64120 49.58188 32195 ft 470 kts 126°
2026-04-28 05:54 36.62485 49.61691 31729 ft 466 kts 126°
2026-04-28 05:54 36.60861 49.65165 31261 ft 462 kts 126°
2026-04-28 05:54 36.59250 49.68611 30859 ft 457 kts 125°
2026-04-28 05:55 36.57658 49.72013 30438 ft 454 kts 125°
2026-04-28 05:55 36.56073 49.75393 29944 ft 451 kts 125°
2026-04-28 05:55 36.54495 49.78753 29439 ft 448 kts 125°
2026-04-28 05:55 36.52930 49.82085 28923 ft 444 kts 124°
2026-04-28 05:56 36.51376 49.85390 28470 ft 439 kts 124°
2026-04-28 05:56 36.49842 49.88651 27990 ft 436 kts 124°
2026-04-28 05:56 36.48317 49.91890 27527 ft 432 kts 124°
2026-04-28 05:56 36.46802 49.95103 27066 ft 429 kts 124°
2026-04-28 05:57 36.45297 49.98294 26626 ft 427 kts 124°
2026-04-28 05:57 36.43799 50.01465 26150 ft 424 kts 124°
2026-04-28 05:57 36.42310 50.04612 25724 ft 421 kts 124°
2026-04-28 05:57 36.40829 50.07742 25278 ft 419 kts 124°
2026-04-28 05:58 36.39350 50.10863 24846 ft 417 kts 123°
2026-04-28 05:58 36.37883 50.13959 24402 ft 416 kts 123°
2026-04-28 05:58 36.36433 50.17014 23963 ft 415 kts 123°
2026-04-28 05:58 36.34970 50.20094 23516 ft 413 kts 123°
2026-04-28 05:59 36.33512 50.23163 23009 ft 412 kts 123°
2026-04-28 05:59 36.32056 50.26229 22551 ft 410 kts 123°
2026-04-28 05:59 36.30615 50.29254 22114 ft 407 kts 124°
2026-04-28 05:59 36.29161 50.32243 21665 ft 399 kts 128°
2026-04-28 06:00 36.27295 50.34705 21219 ft 388 kts 148°
2026-04-28 06:00 36.25012 50.36364 20823 ft 377 kts 155°
2026-04-28 06:00 36.22702 50.37892 20397 ft 375 kts 155°
2026-04-28 06:00 36.20403 50.39421 19963 ft 373 kts 155°
2026-04-28 06:01 36.18113 50.40954 19536 ft 372 kts 155°
2026-04-28 06:01 36.15843 50.42483 19113 ft 370 kts 154°
2026-04-28 06:01 36.13619 50.43991 18694 ft 368 kts 154°
2026-04-28 06:01 36.11382 50.45510 18255 ft 366 kts 154°
2026-04-28 06:02 36.09154 50.47024 17771 ft 364 kts 154°
2026-04-28 06:02 36.06946 50.48526 17331 ft 361 kts 154°
2026-04-28 06:02 36.04754 50.50016 16900 ft 358 kts 154°
2026-04-28 06:02 36.02585 50.51490 16488 ft 354 kts 154°
2026-04-28 06:03 36.00432 50.52951 16080 ft 351 kts 154°
2026-04-28 06:03 35.98291 50.54403 15672 ft 348 kts 154°
2026-04-28 06:03 35.96177 50.55837 15272 ft 345 kts 154°
2026-04-28 06:03 35.94079 50.57260 14869 ft 343 kts 154°
2026-04-28 06:04 35.91999 50.58669 14485 ft 341 kts 154°
2026-04-28 06:04 35.89950 50.60055 14100 ft 338 kts 154°
2026-04-28 06:04 35.87887 50.61448 13691 ft 336 kts 154°
2026-04-28 06:04 35.85842 50.62828 13267 ft 334 kts 154°
2026-04-28 06:05 35.83812 50.64199 12876 ft 331 kts 154°
2026-04-28 06:05 35.81804 50.65553 12484 ft 327 kts 153°
2026-04-28 06:05 35.79812 50.66894 12118 ft 324 kts 153°
2026-04-28 06:05 35.77922 50.68332 11729 ft 318 kts 140°
2026-04-28 06:06 35.76573 50.70470 11384 ft 316 kts 119°
2026-04-28 06:06 35.75872 50.73028 11046 ft 316 kts 102°
2026-04-28 06:06 35.75599 50.75670 10709 ft 313 kts 98°
2026-04-28 06:06 35.75378 50.78313 10497 ft 305 kts 98°
2026-04-28 06:07 35.75152 50.80871 10332 ft 296 kts 98°
2026-04-28 06:07 35.74918 50.83341 10171 ft 281 kts 99°
2026-04-28 06:07 35.74694 50.85621 10021 ft 257 kts 99°
2026-04-28 06:07 35.74484 50.87747 9874 ft 247 kts 100°
2026-04-28 06:08 35.74239 50.89808 9630 ft 237 kts 101°
2026-04-28 06:08 35.73985 50.91790 9398 ft 233 kts 101°
2026-04-28 06:08 35.73733 50.93764 9083 ft 233 kts 101°
2026-04-28 06:08 35.73488 50.95693 8815 ft 230 kts 101°
2026-04-28 06:09 35.73241 50.97645 8683 ft 228 kts 101°
2026-04-28 06:09 35.72997 50.99584 8547 ft 229 kts 100°
2026-04-28 06:09 35.72750 51.01526 8264 ft 230 kts 101°
2026-04-28 06:09 35.72523 51.03439 8009 ft 226 kts 99°
2026-04-28 06:10 35.72310 51.05348 7722 ft 223 kts 99°
2026-04-28 06:10 35.72103 51.07212 7442 ft 217 kts 99°
2026-04-28 06:10 35.71902 51.09036 7214 ft 213 kts 99°
2026-04-28 06:10 35.71694 51.10835 6959 ft 213 kts 99°
2026-04-28 06:11 35.71491 51.12633 6702 ft 209 kts 99°
2026-04-28 06:11 35.71305 51.14341 6430 ft 194 kts 100°
2026-04-28 06:11 35.71125 51.15912 6187 ft 175 kts 99°
2026-04-28 06:11 35.70966 51.17308 5917 ft 154 kts 99°
2026-04-28 06:12 35.70811 51.18628 5784 ft 164 kts 98°
2026-04-28 06:12 35.70660 51.20018 5515 ft 167 kts 98°
2026-04-28 06:12 35.70508 51.21424 5332 ft 165 kts 97°
2026-04-28 06:12 35.70416 51.22840 5253 ft 166 kts 93°
2026-04-28 06:13 35.70399 51.24276 5077 ft 169 kts 91°
2026-04-28 06:13 35.70312 51.25711 4798 ft 168 kts 100°
2026-04-28 06:13 35.70056 51.27088 4438 ft 161 kts 108°
2026-04-28 06:13 35.69708 51.28356 4142 ft 152 kts 110°
2026-04-28 06:14 35.69351 51.29568 3966 ft 154 kts 110°
2026-04-28 06:14 35.69013 51.30718 3905 ft 124 kts 110°
2026-04-28 06:14 35.68782 51.31506 3882 ft 71 kts 110°
2026-04-28 06:14 35.68686 51.31834 3870 ft 58 kts 110°
2026-04-28 06:15 35.68523 51.32063 3853 ft 24 kts 205°
2026-04-28 06:15 35.68430 51.31948 3865 ft 19 kts 246°
2026-04-28 06:15 35.68402 51.31723 3868 ft 31 kts 279°
2026-04-28 06:15 35.68420 51.31645 3873 ft 0 kts 290°